Location: Ernsee
(50.8780°N, 12.0389°E)
Time: 11:52:18
(UTC+00:00)

Cosmos 923 Rocket - Pass Details

Date: 20 January 2020
Orbit: 758 x 786 km, 74.0° (Epoch: 27 February)

Event Time Altitude Azimuth Distance (km) Brightness Sun altitude
Rises 05:10:51 0° 194° (SSW) 3,224 7.2 -17.4°
Reaches altitude 10° 05:13:12 10° 192° (SSW) 2,306 6.5 -17.0°
Maximum altitude 05:18:24 68° 110° (ESE) 836 4.4 -16.2°
Drops below altitude 10° 05:23:41 10° 29° (NNE) 2,342 6.7 -15.4°
Sets 05:26:06 0° 27° (NNE) 3,278 7.4 -15.0°
